Location: Bullenkuhlen
(53.7689°N, 9.7495°E)
Time: 09:03:56
(UTC+00:00)

USA 32 - Pass Details

Date: 09 April 2020
Orbit: 777 x 783 km, 85.0° (Epoch: 22 April)

Event Time Altitude Azimuth Distance (km) Brightness Sun altitude
Rises 20:16:11 0° 354° (N) 3,277 8.0 -16.9°
Reaches altitude 10° 20:18:34 10° 357° (N) 2,344 7.1 -17.1°
Maximum altitude 20:23:49 68° 80° (E) 842 4.0 -17.7°
Enters shadow 20:26:23 30° 155° (SSE) 1,366 4.8 -18.0°
